Regional Weather Roundup
Issued by NWS Sterling, VA

Home | Current Version | Previous Version | Text Only | Print | Product List | Glossary Off
Versions: 1 2 3 4 5 6 7 8 9 10 11 12 13 14 15 16 17 18 19 20 21 22 23 24 25 26 27 28

000
ASUS41 KLWX 180910
RWRLWX

REGIONAL WEATHER ROUNDUP
NATIONAL WEATHER SERVICE BALTIMORE MD/WASHINGTON DC
500 AM EDT WED APR 18 2018

Note: "FAIR" indicates few or no clouds below 12,000 feet
with no significant weather and/or obstructions to visibility.
 TC=TEMPERATURE CELSIUS

 * =Non NWS site. Station does not report precipitation (e.g. rain,
    snow, etc.), thunder, or fog.

DCZ001-MDZ009-015-VAZ040>042-051-053>054-181000-
WASHINGTON METRO

CITY           SKY/WX    TMP DP  RH WIND       PRES   REMARKS
WASHINGTON NAT FAIR      37  23  56 W7        29.91S WCI  32
DULLES         FAIR      32  24  72 S6        29.90S WCI  26
ANDREWS AFB    FAIR      35  23  60 W5        29.89S WCI  31
FT BELVOIR     FAIR      35  24  65 CALM      29.92R
QUANTICO       FAIR      39  24  55 N5        29.93R
COLLEGE PARK*  FAIR      32  24  72 CALM      29.90S
LEESBURG*      FAIR      32  28  86 W8        29.90S WCI  25
MANASSAS*      FAIR      36  22  56 N6        29.92S WCI  31
GAITHERSBURG*  FAIR      33  22  63 SW5       29.89R WCI  29

$$

MDZ006>007-011-014-181000-
BALTIMORE METRO

CITY           SKY/WX    TMP DP  RH WIND       PRES   REMARKS
BWI AIRPORT    FAIR      34  24  67 SW6       29.88S WCI  29
MD SCIENCE CTR   N/A     38  24  57 MISG      29.87F
MARTIN STATE   FAIR      37  28  70 S5        29.89S WCI  34
ANNAPOLIS      FAIR      38  24  57 SW6       29.89S WCI  33
FORT MEADE*    FAIR      30  28  93 CALM      29.92R

$$

MDZ012-015-019>023-181000-
MARYLAND EASTERN SHORE

CITY           SKY/WX    TMP DP  RH WIND       PRES   REMARKS
OCEAN CITY     CLOUDY    40  26  57 N8        29.90R WCI  34
SALISBURY      CLOUDY    40  25  55 NW6       29.89S
BAY BRIDGE AP* FAIR      39  25  56 W10       29.90S WCI  32
CAMBRIDGE*     PTCLDY    39  23  52 NW7       29.90S WCI  34
EASTON*        FAIR      35  25  66 W3        29.93S

$$

MDZ017>025-181000-
SOUTHERN MARYLAND

CITY           SKY/WX    TMP DP  RH WIND       PRES   REMARKS
PATUXENT RIVER FAIR      41  24  51 N8        29.90S
ST INIGOES     FAIR      34  29  82 CALM      29.90R
LEONARDTOWN*   FAIR      32  28  86 CALM      29.92R

$$

MDZ003>005-181000-
NORTH CENTRAL MARYLAND

CITY           SKY/WX    TMP DP  RH WIND       PRES   REMARKS
FREDERICK*     FAIR      32  23  69 CALM      29.92R
HAGERSTOWN APT FAIR      34  23  64 W5        29.85S WCI  30
WESTMINSTER*   FAIR      34  27  75 SW5       29.84S WCI  30

$$

MDZ501>502-181000-
WESTERN MARYLAND

CITY           SKY/WX    TMP DP  RH WIND       PRES   REMARKS
OAKLAND*       FAIR      23  19  86 W10       29.78R WCI  12
CUMBERLAND*    FAIR      34  23  64 SW6       29.92R WCI  29

$$

VAZ025>031-181000-
SHENANDOAH VALLEY

CITY           SKY/WX    TMP DP  RH WIND       PRES   REMARKS
WINCHESTER*    FAIR      32  23  69 W8        29.89F WCI  25
FRONT ROYAL*   FAIR      30  25  80 CALM      29.87F
LURAY*         FAIR      30  28  93 CALM      29.88R
NEW MARKET*    FAIR      28  25  88 CALM      29.86S
STAUNTON*      MOCLDY    32  29  88 CALM      29.87S
WAYNESBORO*    CLOUDY    37  31  81 NW3       29.84S

$$

WVZ021-048>050-054>055-181000-
EASTERN WEST VIRGINIA PANHANDLE

CITY           SKY/WX    TMP DP  RH WIND       PRES   REMARKS
MARTINSBURG    FAIR      30  22  72 W5        29.87S WCI  25
PETERSBURG*    FAIR      30  23  75 S5        29.86R WCI  25

$$

VAZ036>039-050-181000-
CENTRAL FOOTHILLS

CITY           SKY/WX    TMP DP  RH WIND       PRES   REMARKS
CHARLOTTESVILL CLOUDY    37  29  72 CALM      29.89R
CULPEPER*      FAIR      30  26  83 CALM      29.92R
ORANGE*        MOCLDY    30  27  86 CALM      29.90R
GORDONSVILLE*  MOCLDY    30  30 100 CALM      29.90S
WARRENTON*     FAIR      32  23  69 CALM      29.90R

$$

VAZ055>057-181000-
NORTH AND CENTRAL PIEDMONT

CITY           SKY/WX    TMP DP  RH WIND       PRES   REMARKS
FREDERICKSBRG* FAIR      32  28  85 CALM      29.91S
STAFFORD*      FAIR      29  29 100 CALM      29.95S

$$

NCZ024-NYZ072-PAZ021-071-VAZ022-071-181000-
OTHER REGIONAL OBSERVATIONS

CITY           SKY/WX    TMP DP  RH WIND       PRES   REMARKS
NEW YORK CITY  CLOUDY    38  23  55 VRB5      29.78F WCI  34
PHILADELPHIA   MOCLDY    37  23  56 W13       29.85S WCI  29
PITTSBURGH     FAIR      30  23  75 W3        29.87S
ROANOKE        FAIR      44  31  60 S6        29.88R
RICHMOND       CLOUDY    40  27  59 NE5       29.91R
RALEIGH        FAIR      46  40  79 NE6       29.86R

$$

ANZ530>537-181000-
MARINE OBSERVATIONS

STATION/POSITION TIME  TEMP    WIND        PRES
                       AIR SEA DIR/SP/G
                 (UTC) (F)     (DEG/KT/KT) (MB)
THOMAS PT LIGHT  0900   39 49  260/ 10/ 11 1013.4R
BALT KEY BRIDGE  0836   37     220/  7/  8 1011.9F
COVE POINT       0836   41     350/ 17/ 21 1013.0R
LEWISETTA        0836   42 53  360/  7/ 10 1012.8R
SOLOMONS ISLAND  0836   40 51  350/  7/  9 1012.3R
PINEY POINT      0848           10/  7/  8   N/A

$$





USA.gov is the U.S. government's official web portal to all federal, state and local government web resources and services.